Regional Weather Roundup
Issued by NWS

Home | Current Version | Previous Version | Graphics & Text | Print | Product List | Glossary Off
Versions: 1 2 3 4 5 6 7 8 9 10 11 12 13 14 15 16 17 18 19 20 21 22 23 24 25 26 27

000
ASUS45 KCYS 060010
RWRWY

WYOMING REGIONAL WEATHER ROUNDUP
NATIONAL WEATHER SERVICE CHEYENNE WY
600 PM MDT THU MAY 05 2016

NOTE:  "FAIR" INDICATES FEW OR NO CLOUDS BELOW 12,000 FEET
WITH NO SIGNIFICANT WEATHER AND/OR OBSTRUCTIONS TO VISIBILITY.

WYZ001-060100-
YELLOWSTONE NATIONAL PARK

CITY           SKY/WX    TMP DP  RH WIND       PRES   REMARKS
LK YELLOWSTONE   N/A     55  25  31 CALM      30.12F
6HR MIN TEMP:  53; 6HR MAX TEMP:  64;

W YELLOWSTONE  NOT AVBL

$$
WYZ002>013-054>058-071-098>099-060100-
NORTHERN WYOMING

CITY           SKY/WX    TMP DP  RH WIND       PRES   REMARKS
JACKSON        MOSUNNY   70  28  21 SW6       29.99F
CODY           FAIR      79  32  18 SE13      29.91F
GREYBULL       FAIR      83  24  11 SE12      29.85F
6HR MIN TEMP:  73; 6HR MAX TEMP:  85;

WORLAND        FAIR      80  37  21 SE6       29.88F
6HR MIN TEMP:  70; 6HR MAX TEMP:  83;

SHERIDAN       FAIR      80  38  22 CALM      29.87F
6HR MIN TEMP:  77; 6HR MAX TEMP:  85;

BUFFALO        FAIR      77  34  21 NE8       29.96S
6HR MIN TEMP:  74; 6HR MAX TEMP:  83;

GILLETTE       FAIR      77  45  32 N5        29.91F
6HR MIN TEMP:  75; 6HR MAX TEMP:  83;

HULETT         FAIR      81  36  19 CALM      29.92F
NEWCASTLE      FAIR      81  23  12 SW8       29.92F

$$
WYZ014>020-022>026-101>103-060100-
CENTRAL WYOMING

CITY           SKY/WX    TMP DP  RH WIND       PRES   REMARKS
BIG PINEY      PTSUNNY   70  22  16 S13       30.04F
6HR MIN TEMP:  64; 6HR MAX TEMP:  75;

PINEDALE       FAIR      70  21  16 SE9       30.05F
DUBOIS         FAIR      68  23  18 SW6       30.05F
LANDER         FAIR      75  35  23 S16       29.94F
6HR MIN TEMP:  70; 6HR MAX TEMP:  78;

RIVERTON       FAIR      77  33  20 SE8       29.96F
6HR MIN TEMP:  69; 6HR MAX TEMP:  79;

CASPER         FAIR      78  23  13 CALM      29.97F
6HR MIN TEMP:  74; 6HR MAX TEMP:  80;

DOUGLAS        FAIR      79  32  18 NW3       29.97F
6HR MIN TEMP:  74; 6HR MAX TEMP:  81;


$$
WYZ021-027>030-104>119-060100-
SOUTHERN WYOMING

CITY           SKY/WX    TMP DP  RH WIND       PRES   REMARKS
EVANSTON       FAIR      68  26  20 S16G22    30.01F
6HR MIN TEMP:  68; 6HR MAX TEMP:  75;

KEMMERER         N/A     70  18  13 S22G38    30.04S
FORT BRIDGER   CLEAR     72  27  18 S16       30.05S
ROCK SPRINGS   FAIR      71  18  13 SW12      30.02F
6HR MIN TEMP:  69; 6HR MAX TEMP:  74;

DIXON          FAIR      75  27  16 SW6       30.06F
RAWLINS        FAIR      73  21  14 CALM      30.06F
6HR MIN TEMP:  70; 6HR MAX TEMP:  76;

SARATOGA       FAIR      72  23  16 N6        30.09F
LARAMIE        FAIR      69  26  20 N8        30.11F
6HR MIN TEMP:  65; 6HR MAX TEMP:  71;

CHEYENNE       PTSUNNY   73  32  22 S8        30.05F
6HR MIN TEMP:  71; 6HR MAX TEMP:  78;

TORRINGTON     FAIR      80  36  20 SE9       29.92F
6HR MIN TEMP:  76; 6HR MAX TEMP:  82;

PINE BLUFFS    FAIR      77  30  18 S6        30.01F

$$




USA.gov is the U.S. government's official web portal to all federal, state and local government web resources and services.